| time (UTC) | temp C | wind direction | speed KPH | gust KPH | rain 1hr cm | rain 24hr cm | rain mn cm | humidity % | barometer mb |
| 20260510090056 | 22 | 61 | 0.0 | 0.0 | 0.00 | 0.00 | 0.00 | 23 | 1004.0 |
| 20260510084557 | 22 | 61 | 0.0 | 1.6 | 0.00 | 0.00 | 0.00 | 20 | 1004.0 |
| 20260510083054 | 22 | 100 | 0.0 | 0.0 | 0.00 | 0.00 | 0.00 | 22 | 1004.1 |
| 20260510081549 | 23 | 101 | 0.0 | 1.6 | 0.00 | 0.00 | 0.00 | 21 | 1004.1 |
| 20260510080049 | 24 | 101 | 0.0 | 4.8 | 0.00 | 0.00 | 0.00 | 23 | 1004.0 |
| 20260510074601 | 24 | 168 | 0.0 | 11.3 | 0.00 | 0.00 | 0.00 | 19 | 1004.1 |
| 20260510073047 | 23 | 110 | 0.0 | 3.2 | 0.00 | 0.00 | 0.00 | 21 | 1004.4 |
| 20260510071553 | 23 | 111 | 0.0 | 3.2 | 0.00 | 0.00 | 0.00 | 28 | 1004.3 |
| 20260510070041 | 23 | 270 | 0.0 | 3.2 | 0.00 | 0.00 | 0.00 | 21 | 1004.2 |
| 20260510064547 | 23 | 86 | 0.0 | 0.0 | 0.00 | 0.00 | 0.00 | 23 | 1004.1 |
| 20260510063037 | 23 | 110 | 0.0 | 3.2 | 0.00 | 0.00 | 0.00 | 21 | 1003.8 |
| 20260510061538 | 23 | 319 | 0.0 | 4.8 | 0.00 | 0.00 | 0.00 | 22 | 1003.7 |
| 20260510060041 | 25 | 307 | 0.0 | 0.0 | 0.00 | 0.00 | 0.00 | 25 | 1003.2 |
| 20260510054536 | 25 | 306 | 0.0 | 0.0 | 0.00 | 0.00 | 0.00 | 20 | 1003.0 |
| 20260510053035 | 26 | 135 | 3.2 | 6.4 | 0.00 | 0.00 | 0.00 | 16 | 1002.8 |
| 20260510051540 | 27 | 118 | 1.6 | 4.8 | 0.00 | 0.00 | 0.00 | 15 | 1002.7 |
| 20260510050034 | 28 | 114 | 0.0 | 4.8 | 0.00 | 0.00 | 0.00 | 16 | 1002.7 |
| 20260510044537 | 30 | 326 | 1.6 | 6.4 | 0.00 | 0.00 | 0.00 | 13 | 1002.6 |
| 20260510043043 | 30 | 270 | 3.2 | 12.9 | 0.00 | 0.00 | 0.00 | 12 | 1002.4 |
| 20260510041535 | 30 | 28 | 1.6 | 11.3 | 0.00 | 0.00 | 0.00 | 12 | 1002.3 |
| 20260510040032 | 30 | 199 | 1.6 | 8.0 | 0.00 | 0.00 | 0.00 | 12 | 1002.2 |
| 20260510034533 | 30 | 110 | 3.2 | 12.9 | 0.00 | 0.00 | 0.00 | 12 | 1002.0 |
| 20260510033031 | 29 | 244 | 0.0 | 6.4 | 0.00 | 0.00 | 0.00 | 13 | 1001.8 |
| 20260510031531 | 28 | 298 | 0.0 | 1.6 | 0.00 | 0.00 | 0.00 | 15 | 1001.7 |
| 20260510030030 | 30 | 297 | 0.0 | 3.2 | 0.00 | 0.00 | 0.00 | 12 | 1001.4 |
| 20260510024529 | 31 | 330 | 1.6 | 14.5 | 0.00 | 0.00 | 0.00 | 11 | 1001.3 |
| 20260510023029 | 30 | 333 | 3.2 | 6.4 | 0.00 | 0.00 | 0.00 | 13 | 1001.3 |
| 20260510021531 | 31 | 344 | 3.2 | 4.8 | 0.00 | 0.00 | 0.00 | 11 | 1001.1 |
| 20260510020027 | 32 | 322 | 1.6 | 6.4 | 0.00 | 0.00 | 0.00 | 11 | 1000.9 |
| 20260510014529 | 33 | 345 | 3.2 | 12.9 | 0.00 | 0.00 | 0.00 | 9 | 1000.8 |
| 20260510013028 | 33 | 318 | 6.4 | 14.5 | 0.00 | 0.00 | 0.00 | 9 | 1000.8 |
| 20260510011533 | 34 | 325 | 4.8 | 12.9 | 0.00 | 0.00 | 0.00 | 9 | 1000.8 |
| 20260510010034 | 34 | 310 | 4.8 | 14.5 | 0.00 | 0.00 | 0.00 | 9 | 1000.7 |
| 20260510004522 | 34 | 313 | 8.0 | 19.3 | 0.00 | 0.00 | 0.00 | 9 | 1000.8 |
| 20260510003024 | 35 | 315 | 0.0 | 9.7 | 0.00 | 0.00 | 0.00 | 9 | 1000.8 |
| 20260510001524 | 35 | 328 | 8.0 | 17.7 | 0.00 | 0.00 | 0.00 | 8 | 1000.9 |
| 20260510000020 | 35 | 335 | 1.6 | 17.7 | 0.00 | 0.00 | 0.00 | 9 | 1000.9 |
| 20260509234517 | 35 | 338 | 9.7 | 22.5 | 0.00 | 0.00 | 0.00 | 10 | 1001.1 |
| 20260509233015 | 35 | 302 | 4.8 | 14.5 | 0.00 | 0.00 | 0.00 | 8 | 1001.2 |
| 20260509231523 | 35 | 298 | 9.7 | 19.3 | 0.00 | 0.00 | 0.00 | 9 | 1001.3 |
| 20260509230011 | 35 | 322 | 8.0 | 14.5 | 0.00 | 0.00 | 0.00 | 9 | 1001.5 |
| 20260509224511 | 35 | 259 | 6.4 | 20.9 | 0.00 | 0.00 | 0.00 | 10 | 1001.6 |
| 20260509223008 | 35 | 302 | 11.3 | 20.9 | 0.00 | 0.00 | 0.00 | 10 | 1001.7 |
| 20260509221518 | 35 | 255 | 8.0 | 17.7 | 0.00 | 0.00 | 0.00 | 9 | 1002.0 |
| 20260509220004 | 36 | 95 | 4.8 | 12.9 | 0.00 | 0.00 | 0.00 | 10 | 1002.0 |
| 20260509214503 | 36 | 322 | 8.0 | 22.5 | 0.00 | 0.00 | 0.00 | 10 | 1002.3 |
| 20260509213102 | 35 | 210 | 4.8 | 12.9 | 0.00 | 0.00 | 0.00 | 10 | 1002.6 |
| 20260509211558 | 36 | 319 | 3.2 | 12.9 | 0.00 | 0.00 | 0.00 | 11 | 1002.7 |
| 20260509210100 | 35 | 239 | 3.2 | 9.7 | 0.00 | 0.00 | 0.00 | 11 | 1002.9 |
| 20260509204559 | 35 | 326 | 3.2 | 14.5 | 0.00 | 0.00 | 0.00 | 12 | 1003.2 |
| 20260509203055 | 35 | 315 | 4.8 | 14.5 | 0.00 | 0.00 | 0.00 | 12 | 1003.5 |
| 20260509201551 | 35 | 273 | 6.4 | 16.1 | 0.00 | 0.00 | 0.00 | 11 | 1003.7 |
| 20260509200048 | 35 | 321 | 4.8 | 12.9 | 0.00 | 0.00 | 0.00 | 12 | 1003.9 |
| 20260509194545 | 35 | 120 | 0.0 | 11.3 | 0.00 | 0.00 | 0.00 | 12 | 1004.2 |
| 20260509193046 | 33 | 235 | 1.6 | 9.7 | 0.00 | 0.00 | 0.00 | 13 | 1004.5 |
| 20260509191557 | 32 | 219 | 1.6 | 11.3 | 0.00 | 0.00 | 0.00 | 15 | 1004.6 |
| 20260509190046 | 32 | 231 | 3.2 | 8.0 | 0.00 | 0.00 | 0.00 | 15 | 1004.8 |
| 20260509184537 | 32 | 278 | 1.6 | 8.0 | 0.00 | 0.00 | 0.00 | 16 | 1005.0 |
| 20260509183038 | 32 | 94 | 1.6 | 4.8 | 0.00 | 0.00 | 0.00 | 16 | 1005.3 |
| 20260509181528 | 31 | 314 | 3.2 | 6.4 | 0.00 | 0.00 | 0.00 | 16 | 1005.6 |
| 20260509180024 | 30 | 229 | 0.0 | 4.8 | 0.00 | 0.00 | 0.00 | 17 | 1005.9 |
| 20260509174524 | 30 | 278 | 0.0 | 4.8 | 0.00 | 0.00 | 0.00 | 18 | 1006.0 |
| 20260509173021 | 29 | 267 | 1.6 | 6.4 | 0.00 | 0.00 | 0.00 | 19 | 1006.1 |
| 20260509171518 | 29 | 291 | 1.6 | 4.8 | 0.00 | 0.00 | 0.00 | 19 | 1006.2 |
| 20260509170027 | 29 | 325 | 0.0 | 6.4 | 0.00 | 0.00 | 0.00 | 20 | 1006.2 |
| 20260509164513 | 28 | 224 | 3.2 | 8.0 | 0.00 | 0.00 | 0.00 | 20 | 1006.3 |
| 20260509163011 | 27 | 263 | 0.0 | 1.6 | 0.00 | 0.00 | 0.00 | 21 | 1006.3 |
| 20260509161509 | 27 | 326 | 0.0 | 4.8 | 0.00 | 0.00 | 0.00 | 22 | 1006.4 |
| 20260509160011 | 27 | 295 | 0.0 | 1.6 | 0.00 | 0.00 | 0.00 | 23 | 1006.5 |
| 20260509154504 | 26 | 350 | 0.0 | 1.6 | 0.00 | 0.00 | 0.00 | 26 | 1006.4 |
| 20260509153102 | 25 | 290 | 0.0 | 1.6 | 0.00 | 0.00 | 0.00 | 28 | 1006.5 |
| 20260509151605 | 24 | 244 | 0.0 | 1.6 | 0.00 | 0.00 | 0.00 | 29 | 1006.5 |
| 20260509150055 | 24 | 226 | 0.0 | 0.0 | 0.00 | 0.00 | 0.00 | 28 | 1006.4 |
| 20260509144552 | 22 | 223 | 0.0 | 0.0 | 0.00 | 0.00 | 0.00 | 33 | 1006.5 |
| 20260509143049 | 21 | 199 | 0.0 | 0.0 | 0.00 | 0.00 | 0.00 | 35 | 1006.5 |
| 20260509141550 | 21 | 82 | 0.0 | 0.0 | 0.00 | 0.00 | 0.00 | 35 | 1006.4 |
| 20260509140046 | 20 | 83 | 0.0 | 0.0 | 0.00 | 0.00 | 0.00 | 39 | 1006.3 |
| 20260509134554 | 19 | 83 | 0.0 | 1.6 | 0.00 | 0.00 | 0.00 | 38 | 1006.3 |
| 20260509133042 | 17 | 91 | 0.0 | 0.0 | 0.00 | 0.00 | 0.00 | 42 | 1006.0 |
| 20260509131557 | 17 | 92 | 0.0 | 0.0 | 0.00 | 0.00 | 0.00 | 42 | 1005.9 |
| 20260509130049 | 17 | 92 | 0.0 | 0.0 | 0.00 | 0.00 | 0.00 | 42 | 1005.8 |
| 20260509124540 | 17 | 92 | 0.0 | 0.0 | 0.00 | 0.00 | 0.00 | 41 | 1005.7 |
| 20260509123032 | 18 | 92 | 0.0 | 0.0 | 0.00 | 0.00 | 0.00 | 36 | 1005.5 |
| 20260509121530 | 18 | 92 | 0.0 | 0.0 | 0.00 | 0.00 | 0.00 | 38 | 1005.4 |
| 20260509120025 | 18 | 92 | 0.0 | 0.0 | 0.00 | 0.00 | 0.00 | 36 | 1005.3 |
| 20260509114524 | 18 | 92 | 0.0 | 0.0 | 0.00 | 0.00 | 0.00 | 38 | 1005.2 |
| 20260509113022 | 18 | 92 | 0.0 | 0.0 | 0.00 | 0.00 | 0.00 | 33 | 1005.1 |
| 20260509111521 | 18 | 77 | 0.0 | 1.6 | 0.00 | 0.00 | 0.00 | 34 | 1005.2 |
| 20260509110024 | 19 | 81 | 0.0 | 0.0 | 0.00 | 0.00 | 0.00 | 32 | 1005.1 |
| 20260509104518 | 19 | 81 | 0.0 | 0.0 | 0.00 | 0.00 | 0.00 | 32 | 1005.1 |
| 20260509103020 | 19 | 81 | 0.0 | 1.6 | 0.00 | 0.00 | 0.00 | 32 | 1005.1 |
| 20260509101520 | 19 | 81 | 0.0 | 1.6 | 0.00 | 0.00 | 0.00 | 36 | 1005.3 |
| 20260509100016 | 20 | 95 | 0.0 | 0.0 | 0.00 | 0.00 | 0.00 | 29 | 1005.2 |
| 20260509094514 | 20 | 95 | 0.0 | 1.6 | 0.00 | 0.00 | 0.00 | 28 | 1005.2 |
| 20260509093018 | 20 | 95 | 0.0 | 0.0 | 0.00 | 0.00 | 0.00 | 27 | 1005.3 |
| 20260509091509 | 21 | 95 | 0.0 | 0.0 | 0.00 | 0.00 | 0.00 | 26 | 1005.3 |